Lebanon, NH

5:10 AM EDT on July 25, 2017 (GMT -0400)
Lebanon Municipal

Weather History for KLEB - October, 2011

Change the Weather History Date:

Tuesday, October 25, 2011

  Actual Average Record
Temperature  
Mean Temperature 44 °F -  
Max Temperature 55 °F 56 °F 79 °F (1963)
Min Temperature 33 °F 36 °F 17 °F (1947)
Degree Days  
Heating Degree Days 20    
Moisture  
Dew Point 36 °F    
Average Humidity 72    
Maximum Humidity 100    
Minimum Humidity 45    
Precipitation  
Precipitation 0.03 in - - ()
Sea Level Pressure  
Sea Level Pressure 29.92 in    
Wind  
Wind Speed 5 mph (WNW)    
Max Wind Speed 15 mph    
Max Gust Speed 23 mph    
Visibility 10 miles    
Events      
Averages and records for this station are not official NWS values.
T = Trace of Precipitation, MM = Missing Value Source: NWS Daily Summary

Daily Weather History Graph

Daily Weather History Graph

Search for Another Location

Airport or City:

Trip Planner

Search our weather history database for the weather conditions in past years. The results will help you decide how hot, cold, wet, or windy it might be!

Date:

Astronomy

Oct. 25, 2011 Rise Set
Actual Time 7:15 AM EDT 5:50 PM EDT
Civil Twilight 6:46 AM EDT 6:19 PM EDT
Nautical Twilight 6:12 AM EDT 6:53 PM EDT
Astronomical Twilight 5:39 AM EDT 7:26 PM EDT
Moon 5:43 AM EDT 4:50 PM EDT
Length of Visible Light 11h 33m
Length of Day
10h 34m
Waning Crescent, 2% of the Moon is Illuminated
Oct 25
Waning Crescent
Oct 26
New
Nov 2
First Quarter
Nov 10
Full
Nov 18
Last Quarter

Hourly Weather History & Observations

Time (EDT) Temp. Windchill Dew Point Humidity Pressure Visibility Wind Dir Wind Speed Gust Speed Precip Events Conditions
12:53 AM 48.0 °F - 45.0 °F 89% 29.89 in 10.0 mi South 6.9 mph - 0.00 in   Scattered Clouds
1:53 AM 48.9 °F - 44.1 °F 83% 29.88 in 10.0 mi SSW 6.9 mph - 0.02 in   Overcast
2:53 AM 44.1 °F - 42.1 °F 93% 29.88 in 10.0 mi Calm Calm - N/A   Clear
3:53 AM 39.2 °F - 39.2 °F 100% 29.87 in 8.0 mi Calm Calm - N/A   Clear
4:53 AM 41.0 °F - 39.0 °F 93% 29.88 in 10.0 mi Calm Calm - N/A   Clear
5:53 AM 39.0 °F - 37.0 °F 93% 29.88 in 10.0 mi Calm Calm - N/A   Partly Cloudy
6:53 AM 41.0 °F 39.0 °F 39.0 °F 93% 29.90 in 10.0 mi SSE 3.5 mph - N/A   Mostly Cloudy
7:53 AM 46.0 °F - 39.9 °F 79% 29.91 in 10.0 mi Calm Calm - N/A   Overcast
8:53 AM 46.9 °F - 42.1 °F 83% 29.92 in 10.0 mi South 3.5 mph - N/A   Overcast
9:53 AM 50.0 °F - 39.0 °F 66% 29.92 in 10.0 mi West 9.2 mph - N/A   Overcast
10:01 AM 50.0 °F - 39.2 °F 66% 29.92 in 10.0 mi West 6.9 mph - N/A   Overcast
10:53 AM 50.0 °F - 37.9 °F 63% 29.92 in 10.0 mi West 11.5 mph 18.4 mph N/A   Overcast
11:53 AM 52.0 °F - 37.9 °F 59% 29.91 in - WNW 15.0 mph 23.0 mph 0.01 in   Scattered Clouds
12:53 PM 53.1 °F - 37.9 °F 57% 29.90 in 10.0 mi West 11.5 mph 21.9 mph 0.00 in   Mostly Cloudy
1:53 PM 54.0 °F - 37.9 °F 55% 29.88 in 10.0 mi North 6.9 mph - N/A   Mostly Cloudy
2:53 PM 55.0 °F - 34.0 °F 45% 29.88 in 10.0 mi NW 15.0 mph 21.9 mph N/A   Mostly Cloudy
3:53 PM 55.0 °F - 34.0 °F 45% 29.89 in 10.0 mi WNW 11.5 mph 20.7 mph N/A   Scattered Clouds
4:53 PM 52.0 °F - 32.0 °F 47% 29.91 in 10.0 mi NW 11.5 mph 18.4 mph N/A   Partly Cloudy
5:53 PM 50.0 °F - 30.0 °F 46% 29.94 in 10.0 mi NW 8.1 mph 17.3 mph N/A   Scattered Clouds
6:53 PM 46.9 °F - 30.9 °F 54% 29.97 in 10.0 mi North 3.5 mph - N/A   Scattered Clouds
7:53 PM 45.0 °F 43.5 °F 30.0 °F 56% 29.99 in 10.0 mi NNW 3.5 mph - N/A   Clear
8:53 PM 37.4 °F 34.9 °F 30.2 °F 75% 29.97 in 10.0 mi SSE 3.5 mph - N/A   Clear
9:53 PM 37.0 °F 33.3 °F 30.9 °F 79% 29.98 in 10.0 mi NE 4.6 mph - N/A   Clear
10:53 PM 34.0 °F - 30.0 °F 85% 29.97 in 10.0 mi Calm Calm - N/A   Clear
11:53 PM 33.1 °F - 30.0 °F 89% 29.98 in 10.0 mi Calm Calm - N/A   Clear